Temperature
18 19 19 19 19 19 19 19 19 19 19 19 19 19 19 19 19 19 19 19 19 19 19 19 19 19 18 18 18 18 18 18 18 18 18 18 18 18 18 18 18 18 18
19 19 19 19 19 19 19 19 19 19 19 19 19 19 19 19 19 19 19 19 19 19 19 19 19 18 18 18 18 18 18 18 18 18 18 18 18 18 18 18 18 18 18
19 19 19 19 19 19 19 19 19 19 19 19 19 19 19 19 19 19 19 19 19 19 19 19 18 18 18 18 18 18 18 18 18 18 18 18 18 18 18 18 18 18 18
20 19 19 19 19 19 19 19 19 19 19 19 19 19 19 19 19 19 19 19 19 19 19 19 18 18 18 18 18 18 18 18 18 18 18 18 18 18 18 18 18 18 18
20 20 19 19 19 19 19 19 19 19 19 19 19 19 19 19 19 19 19 18 18 18 19 19 18 18 19 18 18 18 18 18 18 18 18 18 18 18 18 18 18 18 18
20 20 20 20 20 19 19 19 19 19 19 19 19 19 19 19 19 19 19 19 19 19 18 18 18 19 18 18 18 18 18 18 18 18 18 18 18 18 18 18 18 18 18
20 20 19 19 20 20 19 19 19 19 19 19 19 19 19 19 19 19 19 19 19 19 19 19 19 19 18 18 18 18 18 18 18 18 18 18 18 18 18 18 18 18 18
20 20 20 20 20 20 19 19 19 19 19 19 19 19 19 19 19 19 19 19 19 19 19 19 19 19 18 18 18 18 18 18 18 18 18 18 18 18 18 18 18 18 18
20 20 20 20 19 19 19 19 19 19 19 19 19 19 19 19 19 19 19 19 19 19 18 19 19 19 19 18 18 18 18 18 18 18 18 18 18 18 18 18 18 18 18
20 20 20 20 19 19 19 19 19 19 19 19 19 19 19 19 19 19 19 19 19 19 19 19 19 19 19 18 18 18 18 18 18 18 18 18 18 18 18 18 18 18 18
20 20 20 20 20 19 19 19 19 19 19 19 19 19 19 19 19 19 19 19 19 19 19 18 18 19 19 18 18 18 18 18 18 18 18 18 18 18 18 18 18 18 18
20 20 20 20 20 19 19 19 19 19 19 19 19 19 19 19 19 19 19 19 19 18 18 18 18 18 18 18 18 18 18 18 18 18 18 18 18 18 18 18 18 18 18
20 20 20 20 19 19 19 19 19 19 19 19 19 19 19 19 19 19 19 19 19 19 18 18 18 18 18 18 18 18 18 18 18 18 19 19 18 19 19 18 18 18 18
20 20 20 20 19 19 19 19 19 19 19 19 19 19 18 19 19 19 19 18 18 18 18 18 19 18 19 19 19 19 19 19 19 19 19 19 18 19 18 18 18 18 18
20 20 20 20 20 20 19 19 19 19 19 19 19 19 19 19 19 19 19 19 18 18 18 18 18 18 18 19 19 19 19 19 19 19 19 19 18 18 18 18 18 18 18
20 20 20 20 20 20 20 19 19 19 19 19 19 19 19 19 19 19 19 19 19 19 18 18 19 19 19 19 19 19 19 19 19 19 19 18 18 18 18 18 18 18 18
21 21 20 20 20 20 20 19 19 19 19 19 19 19 19 19 19 19 19 19 19 19 19 19 19 19 19 19 19 19 19 19 19 19 19 19 18 18 18 18 18 18 18
21 21 20 20 20 20 20 19 19 19 19 19 19 19 19 19 19 19 19 19 19 19 19 19 19 19 19 19 19 19 19 19 19 19 19 19 19 18 18 18 18 18 18
21 21 21 20 20 20 20 19 19 19 19 19 19 19 19 19 19 19 19 19 19 19 19 19 19 19 19 19 19 19 19 19 19 19 19 19 19 19 18 18 18 18 18
21 21 21 20 20 20 20 20 19 19 19 19 19 19 19 19 19 19 19 19 19 19 19 19 19 19 19 19 19 19 19 19 19 19 19 19 19 19 18 18 18 18 18
21 21 21 20 20 20 20 20 20 19 19 19 19 19 19 19 19 19 19 19 19 19 19 19 19 19 19 19 19 19 19 19 19 19 19 19 19 19 18 18 18 18 18
21 21 21 20 20 20 20 20 20 19 19 19 19 19 19 19 19 19 19 19 19 19 19 19 19 19 19 19 19 19 19 19 19 19 19 19 19 19 19 19 18 18 18
22 21 21 21 20 20 20 20 19 19 19 19 19 19 19 19 19 19 19 19 19 19 19 19 19 19 19 19 19 18 18 18 19 19 19 19 19 19 19 19 18 18 18
22 22 21 21 20 20 20 20 20 20 19 20 19 19 19 19 19 19 19 19 19 19 19 19 19 18 18 18 18 18 18 18 18 18 19 19 19 19 19 18 18 18 18
22 22 21 21 21 20 20 20 20 20 20 20 19 19 19 19 19 19 19 19 19 19 19 19 19 18 18 18 18 18 18 18 18 18 18 19 19 19 18 18 18 18 18
22 22 21 21 21 21 20 20 20 20 20 19 19 19 19 19 19 19 19 19 19 19 19 19 18 18 18 18 18 18 18 18 18 18 18 18 18 18 18 18 18 18 18
Wind_Speed
3 6 12 14 15 15 16 16 17 17 17 17 17 18 18 18 17 17 16 16 15 14 13 13 12 12 12 12 12 12 11 11 12 12 12 11 11 12 13 13 13 12 14
7 9 13 14 15 16 16 16 17 16 16 16 16 16 17 17 17 16 16 15 14 13 12 12 11 11 11 11 10 10 10 10 10 10 11 10 10 11 11 12 12 11 13
9 11 13 15 15 15 16 16 16 16 16 15 15 15 15 16 16 15 14 14 13 12 12 11 10 9 9 9 9 8 8 8 8 9 9 8 9 10 11 12 12 12 12
11 11 13 15 15 15 15 15 15 15 15 14 14 15 14 14 14 14 13 13 12 11 11 10 8 8 7 7 7 6 6 6 6 6 6 6 7 10 11 11 12 11 11
10 12 14 16 16 15 15 15 14 14 14 14 14 13 13 13 13 13 12 11 11 10 9 9 7 7 6 5 5 4 4 4 4 4 5 6 7 10 11 11 11 11 11
9 12 15 16 16 15 15 14 14 13 13 13 13 12 12 12 12 12 11 10 9 9 8 7 6 5 5 4 3 3 2 2 3 5 5 7 8 10 10 11 11 11 10
9 11 14 16 15 15 14 14 13 13 12 12 11 11 11 11 10 10 10 9 8 8 7 6 5 4 4 3 2 2 1 1 4 5 6 7 9 10 10 11 10 10 10
11 10 13 15 14 14 13 13 12 12 11 11 11 10 10 10 9 9 9 8 8 7 6 6 5 4 4 4 3 2 1 1 4 5 7 8 10 11 11 11 11 10 10
10 9 9 12 13 13 13 12 12 11 10 10 10 9 9 8 8 8 8 7 7 7 6 6 6 5 5 5 4 3 1 1 3 4 6 8 11 11 11 11 11 10 10
8 8 8 9 10 10 10 11 11 10 9 9 9 9 9 8 8 7 7 6 6 6 6 6 6 6 6 6 5 4 2 2 3 4 6 9 12 12 12 12 11 11 10
8 6 7 7 8 9 9 10 10 10 9 8 7 8 7 6 6 6 6 7 7 7 7 7 7 7 7 7 6 5 4 3 4 4 7 10 12 13 13 13 12 11 10
10 8 7 7 8 9 8 9 8 8 8 7 6 6 6 5 5 5 6 6 6 6 6 7 7 7 7 6 6 6 4 5 5 6 8 11 12 13 13 13 13 12 11
12 10 9 8 8 8 5 7 7 6 7 6 6 6 5 4 4 4 3 4 4 4 4 5 5 5 5 5 4 5 6 5 7 7 9 13 14 13 14 14 13 12 12
10 10 9 8 7 7 7 6 6 5 5 5 7 7 5 3 2 3 3 4 4 4 3 4 4 4 4 5 6 5 6 6 7 8 11 15 15 15 15 15 14 13 12
10 9 9 8 7 7 6 5 5 5 5 6 6 7 7 4 3 3 3 3 4 4 3 3 3 3 3 4 4 4 4 6 8 10 11 15 16 16 15 14 15 14 14
10 9 8 8 7 6 5 4 4 5 5 5 5 6 7 6 4 2 2 2 3 4 4 3 3 3 3 2 3 3 3 5 7 9 9 12 15 16 16 15 15 15 14
11 10 9 9 7 6 5 4 4 5 6 4 5 6 7 6 5 3 2 2 3 4 3 2 2 1 1 1 2 3 2 3 5 7 9 10 12 15 16 16 16 15 15
11 10 9 9 8 7 5 4 3 3 5 4 5 5 6 6 5 3 2 2 3 2 1 1 0 1 1 1 2 3 2 2 4 6 8 9 10 10 13 15 16 15 15
12 11 9 8 8 7 5 4 3 3 3 4 5 4 5 5 4 3 2 2 3 1 1 1 0 1 1 1 2 3 2 2 3 5 5 8 10 11 11 13 15 15 15
11 10 10 8 8 7 4 3 1 1 2 3 3 4 5 5 5 3 2 2 1 1 1 1 1 1 1 2 2 3 3 3 2 3 5 5 8 10 11 11 11 13 15
10 10 10 9 8 6 4 3 3 2 2 2 3 5 6 5 5 4 2 2 1 1 2 2 1 1 1 1 1 3 4 3 3 3 3 3 5 7 8 10 10 9 10
12 11 10 10 9 7 5 4 3 3 3 3 3 4 6 6 5 5 4 3 2 1 1 1 1 0 1 0 1 1 3 4 3 2 2 2 3 4 5 7 8 9 9
12 12 11 9 9 8 6 3 2 1 0 1 1 2 4 6 5 4 4 3 3 2 2 2 1 2 2 2 1 3 2 2 3 3 2 2 3 2 3 4 6 8 9
12 11 9 9 8 7 7 6 5 4 4 4 3 3 3 4 4 5 4 3 3 3 2 2 2 2 2 2 1 1 3 4 2 3 3 3 3 2 3 2 3 6 9
11 11 10 9 9 8 7 8 7 5 4 2 2 2 2 2 3 4 4 4 4 3 3 3 3 2 2 2 2 1 1 1 2 2 3 4 3 3 2 2 2 3 5
8 9 9 8 8 8 8 7 7 7 5 3 3 3 2 2 2 3 3 3 3 3 4 4 3 3 2 2 2 1 2 1 2 2 3 3 3 3 2 2 2 3 4
Wind_Direction
126 128 117 114 111 108 107 106 105 104 103 103 105 108 110 112 115 117 117 116 116 115 112 110 109 107 107 110 110 109 111 114 114 112 112 113 116 120 120 116 115 116 118
141 132 122 118 115 112 110 109 107 106 106 105 107 110 113 114 115 117 118 117 118 117 117 116 114 112 112 114 112 109 110 113 112 112 112 112 115 120 123 121 119 123 123
136 134 126 121 118 116 115 113 112 110 109 109 109 111 114 117 119 119 121 121 120 121 121 120 117 116 115 114 112 111 112 115 116 114 113 113 115 119 125 126 126 127 128
136 134 129 125 122 119 118 116 115 115 114 113 113 114 117 119 121 121 122 124 124 124 124 123 122 122 121 118 116 116 115 117 121 115 122 129 128 128 131 132 132 132 133
131 133 134 130 127 125 122 120 120 119 118 117 117 117 121 124 125 127 127 127 127 128 129 128 128 127 129 127 122 119 117 116 113 118 132 141 142 141 140 139 140 140 139
133 138 139 134 132 130 128 126 124 123 122 121 121 121 124 128 128 131 132 133 134 135 137 140 141 141 141 144 141 137 129 128 118 129 136 146 150 150 149 147 147 147 146
138 140 140 137 137 135 134 132 130 127 127 128 128 128 130 132 135 138 140 142 144 147 148 154 161 165 165 168 175 182 163 155 141 152 150 153 158 159 158 155 153 153 154
142 143 145 144 142 140 139 139 136 133 133 135 136 137 140 141 143 145 147 151 155 159 164 171 180 188 197 204 214 229 243 175 152 150 156 161 167 169 167 163 161 162 164
143 145 147 151 150 148 146 146 145 143 142 143 145 146 150 151 151 155 157 163 170 176 181 188 196 206 219 229 237 252 288 198 157 167 172 173 177 177 175 173 170 170 170
145 152 154 153 155 153 153 154 154 152 152 152 151 153 157 159 161 168 172 178 185 191 197 204 212 221 231 240 248 257 249 231 187 190 179 184 185 184 182 180 176 176 175
154 161 162 159 160 161 163 166 165 161 165 162 163 167 167 170 175 182 187 193 199 203 210 217 226 233 240 248 251 251 251 217 205 197 189 193 190 189 187 183 181 182 181
167 173 174 172 170 172 174 167 170 170 175 174 177 175 171 180 190 192 195 204 208 215 223 230 237 245 248 251 256 258 238 219 204 197 199 197 193 191 189 187 186 186 186
172 174 176 177 175 175 169 163 172 176 178 182 182 181 178 182 196 197 198 213 220 227 242 250 254 253 246 243 244 244 236 219 198 201 202 198 197 193 192 192 192 193 193
165 172 171 172 173 175 169 170 172 177 181 184 189 188 178 178 194 200 206 218 222 230 242 253 258 252 247 242 242 236 221 200 201 200 203 203 200 197 198 199 198 197 196
165 169 171 168 165 164 162 172 172 182 183 186 184 187 181 177 189 201 214 215 217 227 231 238 246 249 249 246 242 230 207 199 202 197 203 204 202 202 202 202 203 202 203
167 169 170 165 164 159 161 168 170 177 181 185 186 185 180 176 180 186 204 212 230 235 232 227 224 233 242 237 255 243 227 209 200 199 201 206 206 205 208 208 208 207 207
165 165 165 164 164 163 163 173 168 178 176 179 190 187 183 181 182 184 200 225 240 252 245 240 249 248 261 272 283 272 245 212 198 197 200 205 209 211 212 212 212 211 212
162 165 172 168 166 169 167 173 172 176 175 182 193 189 193 192 188 181 194 238 254 256 238 239 284 322 306 312 296 286 273 237 210 199 200 207 209 213 215 216 215 215 217
168 168 171 168 169 174 169 169 174 176 182 185 191 197 205 205 198 184 207 251 262 241 253 255 173 200 260 297 287 279 278 245 231 218 209 208 211 213 212 218 220 220 221
168 168 170 170 174 170 160 154 152 176 209 192 198 204 201 204 205 192 203 262 280 281 293 274 271 249 224 249 284 301 287 261 243 232 223 211 210 211 212 214 220 226 226
166 168 172 171 176 165 161 169 178 207 221 222 219 207 198 203 207 195 205 222 205 208 245 251 234 280 286 274 10 333 322 301 270 252 234 217 214 217 214 215 217 221 225
173 175 175 177 178 178 178 178 181 191 212 218 222 215 209 209 213 207 197 212 216 218 262 273 212 265 290 196 153 27 339 337 327 289 260 219 218 214 214 214 211 211 215
178 180 181 182 182 183 179 166 166 141 66 237 222 223 223 214 214 207 195 202 220 210 231 249 226 195 251 286 172 159 170 254 307 317 293 257 239 226 229 212 210 217 219
185 179 176 179 182 185 179 176 179 189 209 221 215 218 229 220 210 204 200 198 218 214 219 239 226 211 203 260 278 220 198 186 194 305 316 305 288 258 246 231 212 219 220
182 179 179 178 186 187 187 186 185 196 211 217 204 201 220 237 221 209 202 198 215 222 219 233 233 225 203 208 224 242 242 216 179 197 286 310 319 291 264 225 198 199 208
173 177 178 177 187 187 188 187 188 194 199 200 205 212 227 237 240 228 212 211 215 213 213 219 227 219 216 208 206 201 199 205 213 193 236 270 284 289 282 245 225 206 210
Height
1536 1537 1537 1537 1537 1537 1537 1537 1538 1538 1539 1539 1540 1540 1541 1542 1543 1545 1546 1547 1548 1549 1550 1550 1551 1552 1553 1553 1554 1554 1555 1555 1555 1556 1556 1556 1557 1557 1557 1557 1558 1558 1558
1536 1537 1538 1538 1539 1539 1539 1539 1540 1540 1541 1541 1542 1543 1543 1544 1545 1546 1547 1548 1549 1550 1551 1552 1553 1553 1554 1555 1555 1556 1556 1557 1557 1557 1557 1558 1558 1558 1558 1558 1558 1558 1559
1537 1538 1540 1540 1540 1540 1541 1541 1542 1542 1543 1543 1544 1544 1545 1546 1547 1548 1549 1550 1550 1551 1552 1553 1554 1554 1555 1556 1556 1557 1557 1558 1558 1558 1558 1559 1559 1559 1559 1559 1559 1560 1560
1538 1539 1541 1541 1542 1542 1543 1543 1544 1544 1544 1545 1545 1546 1547 1548 1549 1549 1550 1551 1552 1552 1553 1554 1555 1555 1556 1557 1557 1558 1558 1558 1559 1559 1559 1560 1560 1560 1560 1560 1560 1560 1561
1539 1541 1542 1543 1543 1544 1544 1545 1545 1546 1546 1547 1547 1548 1548 1549 1550 1551 1552 1552 1553 1554 1554 1555 1556 1556 1557 1558 1558 1559 1559 1559 1560 1560 1560 1560 1561 1561 1561 1561 1561 1561 1561
1540 1542 1543 1544 1545 1545 1546 1546 1547 1547 1548 1548 1549 1549 1550 1551 1551 1552 1553 1553 1554 1554 1555 1556 1556 1557 1558 1558 1559 1559 1560 1560 1560 1561 1561 1561 1561 1561 1562 1562 1562 1562 1562
1541 1543 1544 1545 1546 1547 1547 1548 1548 1549 1549 1550 1550 1551 1551 1552 1553 1553 1554 1554 1555 1555 1556 1556 1557 1558 1558 1559 1560 1560 1560 1561 1561 1561 1561 1562 1562 1562 1562 1562 1562 1562 1562
1542 1544 1545 1547 1548 1548 1549 1549 1550 1550 1551 1551 1552 1552 1553 1553 1554 1554 1555 1555 1555 1556 1556 1557 1558 1558 1559 1560 1560 1561 1561 1561 1561 1561 1562 1562 1562 1562 1562 1562 1562 1562 1562
1544 1545 1546 1548 1549 1549 1550 1551 1551 1552 1552 1553 1553 1553 1554 1554 1555 1555 1556 1556 1556 1557 1557 1558 1558 1559 1559 1560 1561 1561 1561 1561 1561 1562 1562 1562 1562 1562 1562 1562 1562 1562 1563
1545 1546 1547 1548 1549 1550 1551 1552 1553 1553 1553 1554 1554 1554 1555 1555 1556 1556 1556 1557 1557 1557 1558 1558 1559 1559 1560 1560 1561 1561 1561 1561 1562 1562 1562 1562 1562 1562 1562 1562 1562 1562 1562
1546 1547 1548 1549 1550 1551 1552 1553 1553 1554 1554 1555 1555 1555 1556 1556 1557 1557 1557 1557 1558 1558 1558 1559 1559 1560 1560 1561 1561 1561 1561 1561 1561 1561 1561 1561 1562 1562 1562 1562 1562 1562 1562
1545 1547 1549 1550 1551 1552 1553 1554 1554 1555 1555 1555 1556 1556 1557 1557 1557 1558 1558 1558 1558 1559 1559 1559 1559 1560 1560 1560 1561 1561 1561 1561 1561 1561 1561 1561 1561 1561 1561 1561 1561 1562 1562
1545 1547 1549 1550 1551 1552 1553 1554 1555 1555 1556 1556 1556 1557 1557 1558 1558 1558 1558 1559 1559 1559 1559 1560 1560 1559 1560 1560 1560 1560 1560 1560 1560 1560 1560 1560 1561 1561 1561 1561 1561 1561 1561
1545 1547 1548 1550 1551 1552 1554 1554 1555 1556 1556 1556 1557 1557 1558 1558 1558 1558 1559 1559 1559 1559 1559 1559 1559 1559 1559 1559 1559 1559 1559 1559 1559 1559 1559 1560 1560 1560 1560 1560 1560 1560 1560
1544 1546 1548 1550 1551 1552 1554 1555 1555 1556 1556 1557 1557 1557 1558 1558 1558 1559 1559 1559 1559 1559 1559 1559 1559 1559 1559 1558 1558 1558 1558 1558 1558 1558 1558 1559 1559 1559 1559 1559 1559 1559 1559
1543 1546 1548 1550 1551 1552 1553 1555 1555 1556 1556 1557 1557 1558 1558 1558 1559 1559 1559 1559 1559 1559 1559 1559 1558 1558 1558 1558 1558 1558 1557 1557 1557 1557 1557 1558 1558 1558 1557 1557 1557 1558 1558
1543 1545 1547 1549 1551 1552 1553 1554 1555 1556 1556 1557 1557 1558 1558 1559 1559 1559 1559 1559 1559 1559 1559 1558 1558 1558 1557 1557 1557 1556 1556 1556 1556 1556 1556 1556 1556 1556 1556 1556 1556 1556 1556
1543 1545 1547 1549 1550 1552 1553 1554 1555 1555 1556 1557 1557 1558 1558 1558 1559 1558 1558 1558 1558 1558 1558 1558 1557 1557 1557 1556 1556 1555 1555 1555 1555 1555 1555 1555 1555 1555 1554 1554 1554 1554 1554
1542 1544 1546 1548 1549 1551 1552 1553 1555 1555 1556 1556 1557 1557 1557 1557 1557 1558 1558 1558 1558 1558 1557 1557 1557 1556 1556 1555 1555 1555 1554 1554 1554 1554 1554 1553 1553 1553 1553 1552 1552 1552 1552
1541 1543 1545 1547 1548 1550 1551 1553 1554 1554 1555 1555 1556 1556 1556 1557 1557 1557 1557 1557 1557 1557 1556 1556 1556 1555 1555 1554 1554 1553 1553 1552 1552 1552 1552 1552 1552 1551 1551 1551 1550 1550 1551
1540 1542 1544 1545 1547 1549 1550 1551 1552 1553 1554 1554 1555 1555 1555 1556 1556 1555 1555 1555 1555 1555 1555 1555 1555 1554 1554 1553 1553 1552 1551 1551 1550 1550 1550 1550 1550 1550 1550 1549 1549 1549 1549
1538 1540 1542 1544 1545 1547 1548 1550 1551 1552 1553 1553 1553 1554 1554 1554 1554 1554 1554 1554 1554 1554 1554 1554 1553 1553 1552 1552 1552 1550 1549 1550 1549 1549 1549 1549 1549 1548 1548 1547 1547 1547 1547
1536 1538 1540 1542 1544 1545 1547 1549 1550 1550 1551 1551 1552 1552 1552 1553 1553 1553 1552 1552 1552 1552 1552 1552 1552 1552 1551 1551 1550 1550 1549 1548 1547 1547 1547 1547 1547 1547 1546 1546 1545 1545 1545
1534 1537 1539 1540 1542 1544 1546 1547 1548 1548 1549 1549 1550 1550 1551 1551 1551 1551 1550 1550 1550 1550 1550 1550 1550 1550 1549 1549 1548 1548 1549 1548 1547 1545 1545 1545 1545 1545 1544 1544 1543 1542 1542
1532 1535 1537 1538 1540 1542 1544 1545 1546 1547 1547 1548 1548 1549 1549 1549 1549 1549 1549 1548 1548 1548 1548 1548 1548 1548 1547 1547 1546 1546 1546 1546 1545 1545 1543 1543 1543 1542 1542 1541 1541 1540 1539
1530 1532 1535 1537 1538 1540 1541 1543 1544 1545 1545 1546 1546 1546 1547 1547 1547 1547 1547 1546 1546 1546 1545 1545 1545 1545 1545 1545 1544 1544 1544 1543 1543 1543 1542 1541 1540 1540 1539 1539 1538 1537 1536